271  
ASUS44 KOUN 221810  
RWROK  
 
WEATHER ROUNDUP FOR OKLAHOMA  
NATIONAL WEATHER SERVICE NORMAN OK  
100 PM CDT MON JUL 22 2019  
 
NOTE: "FAIR" INDICATES FEW OR NO CLOUDS BELOW 12,000 FEET WITH NO  
SIGNIFICANT WEATHER AND/OR S TO VISIBILITY
.  
 
OKZ001>007-009>012-014-015-017-221900-  
NORTHWEST OKLAHOMA AND THE PANHANDLE  
 
CITY SKY/WX TMP DP RH WIND PRES REMARKS
 
GAGE PTSUNNY 82 61 48 N17 30.25S  
6HR MIN TEMP: 69; 6HR MAX TEMP: 82;  
 
GUYMON MOSUNNY 78 61 55 NE13 30.31S  
ENID/WOODRING MOSUNNY 86 57 37 NE18G25 30.16S  

 
 
OKZ016-021>023-033>039-044-045-221900-  
SOUTHWEST OKLAHOMA  
 
CITY SKY/WX TMP DP RH WIND PRES REMARKS
 
LAWTON/REGL CLOUDY 86 67 52 N15 30.14S  
6HR MIN TEMP: 77; 6HR MAX TEMP: 86;  
 
LAWTON/FT SILL CLOUDY 82 71 69 NE15G23 30.13S  
FREDERICK MOSUNNY 89 68 49 NE16G24 30.11F HX 93  
CLINTON MOSUNNY 83 63 50 N20 30.20S  
HOBART MOSUNNY 89 64 43 NE20G29 30.17R HX 90  
ALTUS AFB PTSUNNY 86 62 44 N15G24 30.16F  

 
 
OKZ018>020-024>031-221900-  
CENTRAL OKLAHOMA  
 
CITY SKY/WX TMP DP RH WIND PRES REMARKS
 
OKLAHOMA CITY PTSUNNY 80 66 62 N15 30.13F  
6HR MIN TEMP: 72; 6HR MAX TEMP: 80; 6HR PCP: TRACE;  
 
OKC/WILEY POST MOSUNNY 86 65 49 NE22G30 30.14F  
OKC/TINKER AFB PTSUNNY 81 66 60 NE16G22 30.13F  
STILLWATER MOSUNNY 86 62 44 N15G22 30.14S  
GUTHRIE MOSUNNY 84 66 54 NE10G23 30.14S  

 
 
OKZ008-013-054>072-221900-  
NORTHEAST OKLAHOMA  
 
CITY SKY/WX TMP DP RH WIND PRES REMARKS
 
TULSA MOSUNNY 82 67 60 N18G29 30.09S  
6HR MIN TEMP: 73; 6HR MAX TEMP: 82; 6HR PCP: TRACE;  
 
TULSA/JONES PTSUNNY 81 68 64 N15G25 30.10F  
PONCA CITY SUNNY 85 56 37 NE22G28 30.16R  
BARTLESVILLE SUNNY 83 65 54 NE15G29 30.14S  
MUSKOGEE CLOUDY 76 68 76 N17G25 30.08S  

 
 
OKZ032-040>043-046>053-073>077-221900-  
SOUTH CENTRAL/SOUTHEAST OKLAHOMA  
 
CITY SKY/WX TMP DP RH WIND PRES REMARKS
 
ARDMORE/DWNTWN CLOUDY 82 68 61 N12G21 30.08S  
MCALESTER CLOUDY 80 69 69 N15 30.08R  

 
 
 
 
CLICK HERE TO GO TO PREVIOUS BULLETINS.

The Nexlab OK Page Main Text Page